Weather History for Kenosha, WI

Change the Weather History Date:

Saturday, April 20, 2013

  Actual Average Record
Temperature  
Mean Temperature 36 °F -  
Max Temperature 44 °F 53 °F 80 °F (1957)
Min Temperature 28 °F 38 °F 22 °F (1983)
Degree Days  
Heating Degree Days 30    
Moisture  
Dew Point 19 °F    
Average Humidity 55    
Maximum Humidity 72    
Minimum Humidity 37    
Precipitation  
Precipitation 0.00 in - - ()
Sea Level Pressure  
Sea Level Pressure 30.24 in    
Wind  
Wind Speed 11 mph (NW)    
Max Wind Speed 15 mph    
Max Gust Speed 23 mph    
Visibility 10 miles    
Events      
Averages and records for this station are not official NWS values.
T = Trace of Precipitation, MM = Missing Value Source: NWS Daily Summary

Daily Weather History Graph

Daily Weather History Graph

Search for Another Location

Airport:

Trip Planner

Search our weather history database for the weather conditions in past years. The results will help you decide how hot, cold, wet, or windy it might be!

Date:

Astronomy

Apr. 20, 2013 Rise Set
Actual Time 6:02 AM CDT 7:39 PM CDT
Civil Twilight 5:32 AM CDT 8:09 PM CDT
Nautical Twilight 4:56 AM CDT 8:45 PM CDT
Astronomical Twilight 4:18 AM CDT 9:24 PM CDT
Moon 2:16 PM CDT (4/20) 2:58 AM CDT (4/20)
Length of Visible Light 14h 37m
Length of Day
13h 37m
Waxing Gibbous, 71% of the Moon is Illuminated
Apr 20
Waxing Gibbous
Apr 25
Full
May 2
Last Quarter
May 9
New
May 17
First Quarter

Hourly Weather History & Observations

Time (CDT) Temp. Windchill Dew Point Humidity Pressure Visibility Wind Dir Wind Speed Gust Speed Precip Events Conditions
12:53 AM 32.0 °F 21.6 °F 21.9 °F 66% 29.94 in 10.0 mi WNW 15.0 mph - N/A   Clear
1:53 AM 32.0 °F 22.5 °F 19.0 °F 59% 29.96 in 10.0 mi NW 12.7 mph - N/A   Clear
2:53 AM 30.9 °F 20.7 °F 18.0 °F 59% 29.99 in 10.0 mi WNW 13.8 mph 23.0 mph N/A   Clear
3:53 AM 28.9 °F 20.4 °F 17.1 °F 61% 30.02 in 10.0 mi NW 9.2 mph - N/A   Clear
4:53 AM 28.9 °F 20.4 °F 17.1 °F 61% 30.06 in 10.0 mi NW 9.2 mph - N/A   Clear
5:53 AM 28.0 °F 21.7 °F 17.1 °F 63% 30.09 in 10.0 mi NW 5.8 mph - N/A   Clear
6:53 AM 28.9 °F 21.1 °F 18.0 °F 64% 30.12 in 10.0 mi WNW 8.1 mph - N/A   Clear
7:53 AM 32.0 °F 24.2 °F 18.0 °F 56% 30.16 in 10.0 mi NW 9.2 mph - N/A   Clear
8:53 AM 33.1 °F 23.9 °F 19.9 °F 59% 30.19 in 10.0 mi NW 12.7 mph - N/A   Scattered Clouds
9:53 AM 36.0 °F 28.0 °F 19.0 °F 50% 30.22 in 10.0 mi NW 11.5 mph - N/A   Partly Cloudy
10:53 AM 37.0 °F 28.5 °F 17.1 °F 44% 30.25 in 10.0 mi WNW 13.8 mph - N/A   Partly Cloudy
11:53 AM 39.0 °F 31.4 °F 17.1 °F 41% 30.27 in 10.0 mi WNW 12.7 mph 20.7 mph N/A   Scattered Clouds
12:53 PM 39.9 °F 32.1 °F 16.0 °F 38% 30.28 in 10.0 mi NW 13.8 mph 21.9 mph N/A   Partly Cloudy
1:53 PM 42.1 °F 36.6 °F 18.0 °F 38% 30.29 in 10.0 mi WNW 9.2 mph 19.6 mph N/A   Scattered Clouds
2:53 PM 43.0 °F 35.7 °F 19.0 °F 38% 30.30 in 10.0 mi WNW 15.0 mph 21.9 mph N/A   Scattered Clouds
3:53 PM 43.0 °F 38.2 °F 18.0 °F 37% 30.32 in 10.0 mi NNW 8.1 mph - N/A   Overcast
4:53 PM 39.9 °F 33.9 °F 21.0 °F 47% 30.33 in 10.0 mi East 9.2 mph - N/A   Overcast
5:53 PM 37.0 °F 29.8 °F 21.9 °F 54% 30.35 in 10.0 mi East 10.4 mph - N/A   Overcast
6:53 PM 35.1 °F 27.4 °F 19.9 °F 54% 30.37 in 10.0 mi ESE 10.4 mph - N/A   Partly Cloudy
7:53 PM 34.0 °F 26.6 °F 21.9 °F 61% 30.39 in 10.0 mi SE 9.2 mph - N/A   Clear
8:53 PM 33.1 °F 27.7 °F 21.9 °F 64% 30.42 in 10.0 mi SE 5.8 mph - N/A   Clear
9:53 PM 32.0 °F 26.4 °F 21.9 °F 66% 30.44 in 10.0 mi SE 5.8 mph - N/A   Clear
10:53 PM 32.0 °F 26.4 °F 21.9 °F 66% 30.45 in 10.0 mi SE 5.8 mph - N/A   Clear
11:53 PM 30.9 °F 25.2 °F 23.0 °F 72% 30.46 in 10.0 mi SE 5.8 mph - N/A   Clear